| time (UTC) | temp F | wind direction | speed knots | gust knots | rain 1hr in | rain 24hr in | rain mn in | humidity % | barometer mb |
| 20260507083327 | 75 | 2.6 | 0.0 | 0.00 | 0.00 | 0.00 | 47 | 1014.0 | |
| 20260507081826 | 70 | 100 | 4.3 | 0.0 | 0.00 | 0.00 | 0.00 | 53 | 1014.0 |
| 20260507080327 | 70 | 100 | 4.3 | 0.0 | 0.00 | 0.00 | 0.00 | 53 | 1014.0 |
| 20260507074827 | 72 | 110 | 6.1 | 0.0 | 0.00 | 0.00 | 0.00 | 47 | 1014.0 |
| 20260507073326 | 72 | 110 | 6.1 | 0.0 | 0.00 | 0.00 | 0.00 | 47 | 1014.0 |
| 20260507071826 | 68 | 2.6 | 0.0 | 0.00 | 0.00 | 0.00 | 56 | 1015.0 | |
| 20260507070326 | 68 | 2.6 | 0.0 | 0.00 | 0.00 | 0.00 | 56 | 1015.0 | |
| 20260507064826 | 64 | 60 | 2.6 | 0.0 | 0.00 | 0.00 | 0.00 | 60 | 1015.0 |
| 20260507063326 | 64 | 60 | 2.6 | 0.0 | 0.00 | 0.00 | 0.00 | 60 | 1015.0 |
| 20260507061836 | 61 | 80 | 4.3 | 0.0 | 0.00 | 0.00 | 0.00 | 68 | 1015.0 |
| 20260507060326 | 61 | 80 | 4.3 | 0.0 | 0.00 | 0.00 | 0.00 | 68 | 1015.0 |
| 20260507054826 | 59 | 60 | 6.1 | 0.0 | 0.00 | 0.00 | 0.00 | 68 | 1015.0 |
| 20260507053333 | 59 | 60 | 6.1 | 0.0 | 0.00 | 0.00 | 0.00 | 68 | 1015.0 |
| 20260507051827 | 54 | 80 | 6.1 | 0.0 | 0.00 | 0.00 | 0.00 | 77 | 1015.0 |
| 20260507050326 | 54 | 80 | 6.1 | 0.0 | 0.00 | 0.00 | 0.00 | 77 | 1015.0 |
| 20260507044823 | 54 | 90 | 6.1 | 0.0 | 0.00 | 0.00 | 0.00 | 77 | 1014.0 |
| 20260507043326 | 54 | 90 | 6.1 | 0.0 | 0.00 | 0.00 | 0.00 | 77 | 1014.0 |
| 20260507041826 | 52 | 100 | 6.1 | 0.0 | 0.00 | 0.00 | 0.00 | 82 | 1014.0 |
| 20260507040326 | 52 | 100 | 6.1 | 0.0 | 0.00 | 0.00 | 0.00 | 82 | 1014.0 |
| 20260507034823 | 52 | 100 | 6.1 | 0.0 | 0.00 | 0.00 | 0.00 | 77 | 1014.0 |
| 20260507033325 | 52 | 100 | 6.1 | 0.0 | 0.00 | 0.00 | 0.00 | 77 | 1014.0 |
| 20260507031826 | 50 | 90 | 6.1 | 0.0 | 0.00 | 0.00 | 0.00 | 82 | 1014.0 |
| 20260507030326 | 50 | 90 | 6.1 | 0.0 | 0.00 | 0.00 | 0.00 | 82 | 1014.0 |
| 20260507024826 | 50 | 90 | 6.1 | 0.0 | 0.00 | 0.00 | 0.00 | 82 | 1014.0 |
| 20260507023326 | 50 | 90 | 6.1 | 0.0 | 0.00 | 0.00 | 0.00 | 82 | 1014.0 |
| 20260507021826 | 52 | 90 | 5.2 | 0.0 | 0.00 | 0.00 | 0.00 | 82 | 1014.0 |
| 20260507020326 | 52 | 90 | 5.2 | 0.0 | 0.00 | 0.00 | 0.00 | 82 | 1014.0 |
| 20260507014826 | 52 | 80 | 6.1 | 0.0 | 0.00 | 0.00 | 0.00 | 82 | 1014.0 |
| 20260507013325 | 52 | 80 | 6.1 | 0.0 | 0.00 | 0.00 | 0.00 | 82 | 1014.0 |
| 20260507011826 | 52 | 80 | 6.1 | 0.0 | 0.00 | 0.00 | 0.00 | 82 | 1013.0 |
| 20260507010326 | 52 | 80 | 6.1 | 0.0 | 0.00 | 0.00 | 0.00 | 82 | 1013.0 |
| 20260507004826 | 54 | 90 | 6.1 | 0.0 | 0.00 | 0.00 | 0.00 | 77 | 1013.0 |
| 20260507003326 | 54 | 90 | 6.1 | 0.0 | 0.00 | 0.00 | 0.00 | 77 | 1013.0 |
| 20260507001826 | 52 | 80 | 5.2 | 0.0 | 0.00 | 0.00 | 0.00 | 88 | 1013.0 |
| 20260507000328 | 52 | 80 | 5.2 | 0.0 | 0.00 | 0.00 | 0.00 | 88 | 1013.0 |
| 20260506234826 | 54 | 1.7 | 0.0 | 0.00 | 0.00 | 0.00 | 77 | 1013.0 | |
| 20260506233326 | 54 | 1.7 | 0.0 | 0.00 | 0.00 | 0.00 | 77 | 1013.0 | |
| 20260506231827 | 55 | 0.9 | 0.0 | 0.00 | 0.00 | 0.00 | 72 | 1013.0 | |
| 20260506230326 | 55 | 0.9 | 0.0 | 0.00 | 0.00 | 0.00 | 72 | 1013.0 | |
| 20260506224822 | 57 | 1.7 | 0.0 | 0.00 | 0.00 | 0.00 | 67 | 1013.0 | |
| 20260506223326 | 57 | 1.7 | 0.0 | 0.00 | 0.00 | 0.00 | 67 | 1013.0 | |
| 20260506221826 | 57 | 0.9 | 0.0 | 0.00 | 0.00 | 0.00 | 67 | 1013.0 | |
| 20260506220325 | 57 | 0.9 | 0.0 | 0.00 | 0.00 | 0.00 | 67 | 1013.0 | |
| 20260506214842 | 61 | 280 | 1.7 | 0.0 | 0.00 | 0.00 | 0.00 | 59 | 1013.0 |
| 20260506213326 | 61 | 280 | 1.7 | 0.0 | 0.00 | 0.00 | 0.00 | 59 | 1013.0 |
| 20260506211823 | 61 | 0 | 0.0 | 0.0 | 0.00 | 0.00 | 0.00 | 59 | 1013.0 |
| 20260506210326 | 61 | 0 | 0.0 | 0.0 | 0.00 | 0.00 | 0.00 | 59 | 1013.0 |
| 20260506204827 | 64 | 290 | 2.6 | 0.0 | 0.00 | 0.00 | 0.00 | 52 | 1012.0 |
| 20260506203326 | 64 | 290 | 2.6 | 0.0 | 0.00 | 0.00 | 0.00 | 52 | 1012.0 |
| 20260506201823 | 66 | 290 | 6.1 | 0.0 | 0.00 | 0.00 | 0.00 | 49 | 1012.0 |
| 20260506200326 | 66 | 290 | 6.1 | 0.0 | 0.00 | 0.00 | 0.00 | 49 | 1012.0 |
| 20260506194845 | 70 | 140 | 2.6 | 0.0 | 0.00 | 0.00 | 0.00 | 38 | 1012.0 |
| 20260506193350 | 70 | 140 | 2.6 | 0.0 | 0.00 | 0.00 | 0.00 | 38 | 1012.0 |
| 20260506191827 | 70 | 210 | 6.1 | 0.0 | 0.00 | 0.00 | 0.00 | 40 | 1011.0 |
| 20260506190326 | 70 | 210 | 6.1 | 0.0 | 0.00 | 0.00 | 0.00 | 40 | 1011.0 |
| 20260506184831 | 73 | 170 | 8.7 | 0.0 | 0.00 | 0.00 | 0.00 | 36 | 1011.0 |
| 20260506183326 | 73 | 170 | 8.7 | 0.0 | 0.00 | 0.00 | 0.00 | 36 | 1011.0 |
| 20260506181826 | 72 | 240 | 7.8 | 0.0 | 0.00 | 0.00 | 0.00 | 41 | 1011.0 |
| 20260506180327 | 72 | 240 | 7.8 | 0.0 | 0.00 | 0.00 | 0.00 | 41 | 1011.0 |
| 20260506174826 | 72 | 210 | 6.1 | 0.0 | 0.00 | 0.00 | 0.00 | 41 | 1011.0 |
| 20260506173326 | 72 | 210 | 6.1 | 0.0 | 0.00 | 0.00 | 0.00 | 41 | 1011.0 |
| 20260506171826 | 75 | 260 | 2.6 | 0.0 | 0.00 | 0.00 | 0.00 | 34 | 1010.0 |
| 20260506170326 | 75 | 260 | 2.6 | 0.0 | 0.00 | 0.00 | 0.00 | 34 | 1010.0 |
| 20260506164826 | 77 | 260 | 6.1 | 0.0 | 0.00 | 0.00 | 0.00 | 30 | 1010.0 |
| 20260506163326 | 77 | 260 | 6.1 | 0.0 | 0.00 | 0.00 | 0.00 | 30 | 1010.0 |
| 20260506161826 | 81 | 250 | 5.2 | 0.0 | 0.00 | 0.00 | 0.00 | 24 | 1010.0 |
| 20260506160326 | 81 | 250 | 5.2 | 0.0 | 0.00 | 0.00 | 0.00 | 24 | 1010.0 |
| 20260506154827 | 81 | 240 | 5.2 | 0.0 | 0.00 | 0.00 | 0.00 | 26 | 1010.0 |
| 20260506153326 | 81 | 240 | 5.2 | 0.0 | 0.00 | 0.00 | 0.00 | 26 | 1010.0 |
| 20260506151826 | 82 | 250 | 5.2 | 0.0 | 0.00 | 0.00 | 0.00 | 23 | 1011.0 |
| 20260506150332 | 82 | 250 | 5.2 | 0.0 | 0.00 | 0.00 | 0.00 | 23 | 1011.0 |
| 20260506144826 | 82 | 260 | 5.2 | 0.0 | 0.00 | 0.00 | 0.00 | 25 | 1011.0 |
| 20260506143338 | 82 | 260 | 5.2 | 0.0 | 0.00 | 0.00 | 0.00 | 25 | 1011.0 |
| 20260506141826 | 82 | 2.6 | 0.0 | 0.00 | 0.00 | 0.00 | 25 | 1011.0 | |
| 20260506140443 | 82 | 2.6 | 0.0 | 0.00 | 0.00 | 0.00 | 25 | 1011.0 | |
| 20260506134851 | 82 | 5.2 | 0.0 | 0.00 | 0.00 | 0.00 | 23 | 1011.0 | |
| 20260506133326 | 82 | 5.2 | 0.0 | 0.00 | 0.00 | 0.00 | 23 | 1011.0 | |
| 20260506131826 | 81 | 330 | 4.3 | 0.0 | 0.00 | 0.00 | 0.00 | 24 | 1011.0 |
| 20260506130335 | 81 | 330 | 4.3 | 0.0 | 0.00 | 0.00 | 0.00 | 24 | 1011.0 |
| 20260506124827 | 82 | 4.3 | 0.0 | 0.00 | 0.00 | 0.00 | 26 | 1012.0 | |
| 20260506123326 | 82 | 4.3 | 0.0 | 0.00 | 0.00 | 0.00 | 26 | 1012.0 | |
| 20260506121826 | 81 | 120 | 5.2 | 0.0 | 0.00 | 0.00 | 0.00 | 26 | 1012.0 |
| 20260506120326 | 81 | 120 | 5.2 | 0.0 | 0.00 | 0.00 | 0.00 | 26 | 1012.0 |
| 20260506114826 | 81 | 110 | 5.2 | 0.0 | 0.00 | 0.00 | 0.00 | 26 | 1012.0 |
| 20260506113326 | 81 | 110 | 5.2 | 0.0 | 0.00 | 0.00 | 0.00 | 26 | 1012.0 |
| 20260506111826 | 79 | 120 | 5.2 | 0.0 | 0.00 | 0.00 | 0.00 | 30 | 1013.0 |
| 20260506110326 | 79 | 120 | 5.2 | 0.0 | 0.00 | 0.00 | 0.00 | 30 | 1013.0 |
| 20260506104826 | 79 | 180 | 5.2 | 0.0 | 0.00 | 0.00 | 0.00 | 28 | 1013.0 |
| 20260506103326 | 79 | 180 | 5.2 | 0.0 | 0.00 | 0.00 | 0.00 | 28 | 1013.0 |
| 20260506101826 | 77 | 170 | 4.3 | 0.0 | 0.00 | 0.00 | 0.00 | 30 | 1013.0 |
| 20260506100326 | 77 | 170 | 4.3 | 0.0 | 0.00 | 0.00 | 0.00 | 30 | 1013.0 |
| 20260506094826 | 77 | 2.6 | 0.0 | 0.00 | 0.00 | 0.00 | 34 | 1014.0 | |
| 20260506093326 | 77 | 2.6 | 0.0 | 0.00 | 0.00 | 0.00 | 34 | 1014.0 | |
| 20260506091826 | 73 | 90 | 4.3 | 0.0 | 0.00 | 0.00 | 0.00 | 38 | 1014.0 |
| 20260506090326 | 73 | 90 | 4.3 | 0.0 | 0.00 | 0.00 | 0.00 | 38 | 1014.0 |
| 20260506084826 | 72 | 4.3 | 0.0 | 0.00 | 0.00 | 0.00 | 41 | 1014.0 |